Tracking 19176 objects as of 26-May-2018
HD Live streaming from Space Station
objects crossing your sky now

FENGYUN 1C DEB

Track FENGYUN 1C DEB now!
10-day predictions


NORAD ID: 30089
Int'l Code: 1999-025QS
Perigee: 753.8 km
Apogee: 862.7 km
Inclination: 99.0 °
Period: 100.9 minutes
Semi major axis: 7179 km
RCS: 0.054 m2 (small)
Launch date: May 10, 1999
Source: People's Republic of China (PRC)
Launch site: Taiyaun Space Center, China (TSC)

Note: This is SATELLITE DEBRIS
aabbcc
Your satellite tracking list
Your tracking list is empty




NASA's NSSDC Master Catalog

Two Line Element Set (TLE):
1 30089U 99025QS  18145.34838271 +.00000161 +00000-0 +82944-4 0  9999
2 30089 098.9862 286.5612 0075857 272.1991 115.6483 14.27187072591087
Source of the keplerian elements: AFSPC